User: anonymous   Login
Location: Unspecified
(0.0000°N, 0.0000°E)
Time: 06:58:08
(UTC+02:00)
Language:

ATLAS 3B CENTAUR R/B - Orbit

View from above orbital plane
View from above orbital plane
View from above satellite
View from above satellite

Ground track
Ground track

The orbit data is extracted from the following two-line orbital elements,

1 28118U 03057B   17235.46602106  .00071462  00000-0  10947-2 0  9991
2 28118  28.1205 311.8123 3022873 192.4254 158.1149  9.42717758296007
Epoch (UTC): 23 August 2017 11:11:04
Eccentricity: 0.3022873
inclination: 28.1205°
perigee height: 226 km
apogee height: 5949 km
right ascension of ascending node: 311.8123°
argument of perigee: 192.4254°
revolutions per day: 9.42717758
mean anomaly at epoch: 158.1149°
orbit number at epoch: 29600

The dashed part of the orbit path shows where the satellite is in the earth's shadow,  

DLR